Theta_e
340 339 339 340 338 337 338 338 338 338 337 338 338 338 338 338 338 338 338 337 337 337 337 337 337 336 335 335 335 335 335 336 337 334 333 333 329 326 327 327 327 328 329 329 330 330 330 330 330 330 330 330 330 330 330 330 330 330 330 329 329 329 329 329 329 328 328 328 328 329 328 328 329 330 330 330 330 330 330 329 329 328 325 321 318
340 339 338 339 338 336 337 337 338 337 336 338 339 339 338 338 338 338 337 337 337 337 336 336 336 335 334 335 335 335 335 335 335 333 333 332 329 326 326 328 329 330 330 330 331 330 330 330 330 329 329 329 329 329 329 329 329 328 328 328 328 328 328 328 328 327 327 327 328 328 328 327 328 329 330 330 330 330 330 330 329 329 328 326 322
339 339 338 336 337 337 337 337 338 338 338 339 338 338 339 338 338 337 336 337 336 336 336 336 335 335 334 334 334 334 334 333 332 332 332 332 330 328 326 327 328 330 331 330 331 330 330 329 328 328 328 328 328 328 328 327 328 328 327 327 327 327 327 327 327 327 327 327 327 327 328 327 327 327 328 329 330 330 330 329 329 329 329 329 327
337 337 338 337 337 337 337 337 338 339 338 337 336 336 337 336 335 334 334 335 336 335 336 335 335 334 334 334 333 332 332 332 331 331 331 331 330 328 326 326 326 328 330 330 329 329 329 328 328 327 327 327 327 326 327 326 327 326 326 326 326 326 326 326 326 326 326 326 326 326 327 327 327 327 328 329 329 330 330 330 329 329 329 329 329
333 332 337 338 337 337 336 336 338 337 335 334 333 334 336 336 334 334 334 334 335 335 335 335 335 334 333 333 332 331 330 330 330 329 329 329 328 327 326 326 325 325 326 328 328 327 327 327 326 326 326 325 325 325 325 325 324 323 324 324 324 325 325 325 326 326 326 326 326 326 326 326 327 327 327 328 329 330 330 331 330 329 329 329 328
334 330 333 337 335 335 336 336 336 335 333 333 334 336 336 334 334 334 334 333 335 334 334 334 334 333 332 331 330 329 328 327 327 327 328 328 328 327 326 326 326 324 323 324 325 325 324 323 322 321 320 319 319 319 319 318 317 316 318 319 321 322 323 324 324 325 325 325 324 324 324 325 325 326 326 326 328 329 329 329 330 329 330 329 329
335 331 333 336 332 331 335 336 335 334 333 333 334 335 334 333 332 331 332 334 335 333 333 333 333 332 330 329 328 327 326 325 325 324 325 325 326 327 327 327 326 324 322 321 321 319 315 313 311 309 308 307 307 307 307 308 307 307 307 309 312 314 317 318 320 321 321 322 322 321 321 322 323 324 324 325 326 327 328 329 329 329 329 329 328
335 334 334 334 331 332 336 336 334 333 332 332 334 334 333 332 330 328 330 334 334 332 332 332 332 330 329 328 326 325 323 323 324 323 323 323 323 325 325 324 324 322 320 317 313 309 306 304 302 301 301 301 300 301 301 301 301 301 301 301 302 303 305 307 309 310 311 312 313 313 313 314 317 319 321 322 323 325 326 327 328 329 329 329 328
336 337 335 334 335 335 336 335 334 333 332 331 332 331 330 330 330 328 328 331 332 332 332 332 331 329 327 326 324 323 322 322 322 322 324 324 323 323 323 322 319 315 311 308 304 301 301 300 300 300 300 300 300 300 300 300 300 300 300 300 300 300 300 300 300 301 302 302 303 303 303 304 306 308 312 315 318 321 323 324 326 326 327 328 328
335 336 335 335 337 336 335 334 333 333 332 332 331 329 327 328 330 330 327 328 330 331 331 332 330 327 325 324 322 322 322 322 321 321 323 323 322 321 318 314 310 306 302 301 300 300 299 299 300 301 299 299 299 300 299 299 300 300 300 300 300 300 300 299 300 299 299 299 299 299 299 299 300 301 302 304 308 312 316 319 322 324 325 325 326
334 334 335 336 336 335 334 332 332 332 332 332 332 331 330 329 330 329 328 328 328 328 330 331 328 325 324 322 321 322 322 322 322 322 322 321 319 314 310 305 301 300 299 300 299 299 299 299 300 302 300 299 299 299 299 299 299 299 299 299 299 299 299 299 299 299 300 299 299 299 299 299 299 299 299 299 300 301 305 309 313 318 321 323 324
334 334 335 335 335 334 331 330 331 331 330 331 331 331 330 329 330 328 329 329 324 326 330 330 327 324 322 321 321 322 323 322 322 321 319 316 311 306 304 302 300 300 299 299 299 299 299 299 299 299 300 300 299 299 299 299 299 299 298 298 298 298 298 299 299 299 299 299 299 299 299 299 299 299 299 298 298 298 299 300 303 307 313 318 321
335 335 334 333 333 331 330 330 330 329 328 329 329 328 327 328 329 326 327 327 322 325 330 328 325 323 322 321 320 321 322 321 322 320 315 309 304 300 300 300 299 300 299 299 299 299 299 299 298 298 299 299 298 298 298 298 298 298 298 298 298 298 298 298 298 298 298 298 298 298 298 299 299 299 299 298 298 298 298 298 298 299 303 308 315
334 333 332 331 330 329 329 328 328 327 327 328 327 326 327 328 328 324 321 321 318 324 328 326 325 324 323 322 321 320 320 320 319 315 308 303 300 299 299 300 300 299 301 301 300 300 299 298 298 298 298 298 297 298 298 298 298 298 297 298 297 297 297 297 297 297 297 297 298 298 298 298 298 298 299 299 298 298 298 298 298 298 298 300 304
332 331 331 330 330 329 328 325 325 326 327 328 327 326 328 327 325 322 317 314 313 318 324 326 327 327 325 324 323 322 320 317 313 306 303 300 299 299 299 302 302 299 301 303 302 300 299 298 298 298 298 298 297 297 297 297 297 297 297 297 297 297 297 297 297 297 297 297 297 297 297 298 298 298 298 298 298 298 298 298 298 298 298 298 298
331 331 330 330 329 327 326 325 323 323 325 327 326 325 325 321 319 317 316 318 315 311 316 322 327 329 327 326 326 326 323 318 311 303 301 300 299 299 299 300 300 300 302 303 303 301 300 298 297 298 298 297 298 297 297 297 297 297 297 297 297 297 297 296 296 297 297 297 297 297 297 297 297 297 298 298 298 298 298 298 298 298 298 298 298
331 330 329 328 327 325 324 324 322 323 324 325 323 320 318 315 313 311 315 321 317 308 309 316 324 328 328 327 327 326 324 320 315 308 305 303 300 298 299 298 298 302 303 302 302 301 301 301 298 298 298 297 297 297 297 297 296 296 296 296 296 296 296 296 296 296 296 297 297 297 297 297 297 297 297 297 298 298 298 298 298 298 298 298 298
331 329 328 327 325 324 323 323 323 324 324 322 318 315 313 311 311 309 309 313 312 307 304 309 316 321 324 326 326 325 323 320 317 313 307 305 302 299 298 298 298 302 303 301 299 297 300 301 300 299 298 297 297 297 298 297 296 296 296 296 296 296 296 296 296 296 296 296 296 296 296 297 297 297 297 297 297 298 298 298 298 299 299 299 298
330 328 327 326 324 324 324 323 323 323 320 318 314 312 311 309 308 308 305 305 308 309 304 303 306 310 315 318 317 316 317 318 318 315 311 309 307 303 300 298 298 301 302 302 300 297 297 299 301 301 299 298 299 299 299 298 296 296 296 296 295 295 295 295 296 296 296 296 296 296 296 296 296 297 297 297 297 298 298 298 298 298 299 299 299
327 326 326 325 324 324 324 323 322 319 315 313 312 310 309 307 305 305 303 302 307 309 306 303 303 303 304 306 305 305 306 312 316 315 314 314 311 308 306 304 302 299 298 300 300 297 298 298 300 302 300 300 301 300 300 299 296 296 296 296 295 295 295 295 295 295 295 295 295 295 296 296 297 297 297 297 297 298 298 298 298 298 299 299 299
326 324 323 323 323 323 323 322 319 315 312 311 310 308 306 305 303 302 302 302 303 305 303 301 302 301 301 302 301 301 301 305 309 310 312 314 312 310 310 309 309 305 299 298 298 298 300 300 301 302 301 301 302 301 300 298 296 297 296 295 295 295 296 295 295 295 295 295 295 296 296 297 297 297 297 298 298 298 298 298 298 298 298 298 299
325 323 322 322 323 322 321 319 316 312 310 308 306 304 303 302 302 301 301 301 301 301 301 301 301 301 303 307 309 308 307 307 307 308 310 311 310 308 309 309 311 310 305 301 300 301 302 303 303 303 302 302 302 301 299 297 296 297 296 295 296 295 296 295 295 295 295 295 296 296 297 297 297 298 298 298 298 298 298 299 299 300 301 301 299
323 323 322 321 322 321 319 316 312 309 307 304 303 302 301 301 301 301 301 301 300 300 301 300 300 300 301 305 308 308 308 308 307 308 310 310 310 308 307 307 308 309 307 304 303 303 304 303 303 303 302 302 301 300 298 296 297 297 296 296 296 295 296 295 295 295 295 295 296 297 297 297 298 298 298 298 298 298 298 298 299 301 302 301 299
323 322 322 321 321 319 316 313 309 306 304 302 301 301 301 301 301 301 300 300 300 300 300 300 300 300 299 300 301 301 301 302 302 304 306 308 310 309 307 307 308 308 306 306 306 304 303 302 302 302 302 301 301 299 297 296 297 297 296 296 296 296 296 295 295 295 295 296 297 297 298 298 298 298 298 299 299 299 298 298 299 299 299 299 298
322 321 321 320 319 316 312 309 306 304 302 301 301 300 300 300 300 300 300 300 300 300 300 300 299 299 299 299 299 299 299 299 299 299 301 304 306 308 308 308 308 307 306 306 305 304 303 302 302 302 301 300 300 299 297 296 297 296 296 296 296 296 296 295 295 295 296 297 297 298 298 298 298 298 299 299 299 299 299 298 298 299 299 298 298
322 321 320 318 318 315 309 306 304 302 301 300 300 300 300 300 300 300 300 299 300 299 299 299 299 299 299 298 298 298 298 298 298 298 299 300 300 303 307 309 308 306 305 305 304 303 303 301 302 302 301 300 299 298 297 296 297 297 296 296 296 296 296 296 295 296 296 297 298 298 298 298 299 299 299 299 299 299 299 298 299 299 299 299 299
322 321 318 318 317 312 306 303 302 300 300 300 300 300 300 300 299 299 299 299 299 299 299 298 299 299 298 299 298 298 298 298 298 298 298 298 298 299 303 307 309 306 305 305 304 304 303 301 302 302 301 300 298 297 297 297 297 297 296 296 296 296 297 296 296 296 297 297 298 299 299 299 299 299 299 299 299 299 298 298 299 298 297 298 298
321 319 317 317 314 307 302 301 300 299 299 299 299 300 299 299 299 299 299 299 299 298 298 298 298 298 298 298 297 297 297 297 298 298 298 298 297 298 299 302 305 306 305 306 305 304 303 302 302 302 301 300 298 297 297 297 297 297 297 296 296 297 297 297 297 297 298 298 299 299 299 299 299 299 299 299 299 298 298 298 298 297 297 297 297
320 317 317 315 309 303 301 300 299 299 299 299 299 299 299 299 299 299 299 299 298 298 298 298 298 298 298 298 297 297 297 297 297 297 298 298 297 297 297 298 301 304 306 306 306 305 302 301 302 301 300 299 298 297 297 298 298 298 297 297 297 298 298 297 297 298 298 299 299 299 300 299 299 299 299 299 299 298 298 298 297 297 296 296 297
320 316 316 312 305 301 301 299 299 299 299 299 299 299 299 299 299 299 299 298 298 298 298 298 298 298 298 297 297 297 297 297 297 297 297 298 298 298 297 297 297 300 303 305 306 304 302 301 301 301 299 299 298 298 298 299 299 298 297 297 298 299 298 298 298 299 299 299 299 299 300 300 299 299 299 299 299 299 298 298 297 297 296 296 296
319 315 312 307 301 300 299 298 299 299 299 299 299 298 299 299 299 298 298 298 298 298 298 298 297 297 297 297 297 297 297 297 296 296 297 297 298 299 299 299 298 296 299 303 304 303 302 302 301 300 300 299 298 299 300 300 300 299 298 298 299 299 299 299 299 299 299 300 299 299 300 299 299 299 299 299 299 299 298 298 297 297 296 296 296
317 311 307 302 300 300 299 298 299 298 298 299 298 298 298 298 298 298 298 297 297 297 297 297 297 297 296 296 297 298 299 300 299 298 297 296 298 299 299 301 301 298 298 301 303 302 301 302 301 301 301 300 300 300 301 301 300 300 299 299 299 299 300 300 299 299 300 300 299 300 300 299 299 299 299 299 299 299 298 298 297 297 296 296 296
314 307 304 302 300 299 298 298 298 298 298 298 298 298 298 298 298 298 297 297 297 297 297 297 296 297 296 296 296 297 298 300 301 300 299 298 299 299 300 301 302 301 299 300 302 301 300 300 301 301 302 301 301 301 301 301 301 301 300 300 300 300 300 300 300 300 300 300 300 300 300 300 300 300 300 299 299 299 298 297 297 297 296 296 296
311 306 305 302 300 300 298 297 298 298 298 298 298 298 298 298 298 297 298 298 297 296 296 296 296 296 297 296 296 295 296 298 299 299 298 299 300 300 300 301 302 301 300 300 301 302 301 300 301 302 302 301 301 301 301 301 301 301 300 299 300 300 300 300 300 300 300 300 300 300 300 300 300 300 300 299 299 298 298 297 297 296 296 296 296
309 308 306 303 302 302 299 299 298 297 298 298 298 298 298 298 298 298 298 298 297 297 297 296 296 296 296 296 296 296 297 298 299 298 296 298 301 301 300 300 301 300 299 300 301 302 302 301 301 302 301 301 301 301 301 301 301 300 300 299 300 299 298 299 299 300 300 300 300 300 300 300 300 300 300 299 299 298 298 297 297 296 296 296 296
308 309 307 305 305 303 302 301 298 297 298 297 297 297 297 297 298 298 298 297 298 299 299 298 297 297 297 297 297 298 300 301 301 299 296 296 300 301 299 300 301 299 297 299 301 302 301 301 301 301 301 301 301 301 301 301 300 299 300 300 299 298 297 298 299 300 300 300 300 301 301 300 300 300 299 299 298 298 297 297 296 296 296 296 297
309 309 307 307 307 304 303 303 300 299 299 297 297 297 296 298 299 299 299 299 300 300 299 298 298 298 299 300 300 300 301 301 299 298 295 295 298 299 297 297 298 297 295 298 300 300 301 301 301 301 300 300 300 300 300 300 299 299 300 300 298 296 297 298 300 300 300 301 301 301 301 300 300 300 299 299 298 297 297 297 297 296 296 297 297
309 308 306 309 308 305 305 305 302 301 300 299 299 298 298 299 299 299 299 299 299 298 298 298 298 298 299 299 299 299 299 298 297 295 294 295 296 296 295 295 295 295 295 297 298 299 300 300 300 300 300 300 300 300 300 299 299 299 299 298 296 296 297 299 300 300 301 301 301 301 300 300 300 300 299 298 298 297 297 297 297 297 296 297 297
308 306 306 309 309 307 307 307 305 304 304 303 302 300 299 299 299 299 299 299 298 297 299 301 300 299 299 299 298 297 296 296 295 294 295 295 295 295 295 294 294 295 295 296 297 298 299 299 299 299 299 299 300 300 299 298 299 299 298 297 296 297 298 299 300 300 301 301 300 300 300 300 300 299 299 298 298 297 297 297 297 297 297 297 297
306 305 308 308 308 308 308 308 307 306 306 306 305 302 301 299 299 300 298 299 299 298 300 302 299 298 299 299 299 296 294 295 295 294 295 295 295 295 294 294 295 294 295 295 297 298 298 298 299 299 299 299 299 299 298 298 299 298 296 297 297 298 299 299 300 300 301 300 300 300 300 300 300 299 298 298 297 297 297 297 297 297 297 297 297
304 305 307 305 304 308 309 308 309 308 307 307 305 304 304 301 299 300 299 300 300 299 300 300 298 299 301 299 297 294 294 294 294 294 295 294 294 295 294 294 294 294 294 295 295 296 296 296 297 298 298 299 299 298 298 298 298 296 295 296 298 298 299 299 300 300 300 300 300 300 300 300 299 298 298 297 297 297 297 297 297 297 297 297 297
302 302 303 300 302 308 308 306 307 306 305 306 304 302 304 303 301 301 300 300 300 300 301 301 299 300 302 300 295 293 294 295 294 294 294 294 294 294 294 294 294 294 294 294 294 295 294 295 296 296 298 298 298 297 297 297 296 295 295 297 298 298 299 300 300 300 300 300 300 300 300 299 298 297 297 297 296 296 296 296 296 296 296 296 296
300 300 302 301 302 304 302 301 302 300 301 304 302 300 301 303 303 302 300 300 302 301 302 303 302 302 303 302 298 294 294 294 295 295 295 294 294 294 294 295 295 295 295 295 295 294 294 294 294 295 297 297 296 296 297 296 294 294 295 297 298 298 299 300 300 300 300 299 299 299 299 299 297 297 296 296 296 295 295 296 295 295 295 295 295
301 300 303 304 302 299 299 300 299 297 299 301 300 297 298 300 302 303 302 302 303 303 303 304 305 304 303 302 299 296 295 294 294 295 295 295 295 295 295 295 296 296 295 295 295 294 293 294 294 295 296 296 295 295 295 294 293 294 295 296 297 298 299 299 300 300 300 299 299 299 299 299 298 297 296 295 295 295 294 295 295 295 295 294 294
302 301 302 303 301 298 298 298 298 298 298 298 297 296 295 297 298 301 304 304 302 304 305 305 306 305 303 301 298 297 296 295 294 295 295 295 295 296 297 298 299 299 297 297 297 295 294 294 294 294 294 294 293 294 294 294 294 295 296 296 296 297 299 299 299 300 300 299 299 299 299 299 298 297 296 295 294 294 294 294 294 294 294 294 294
304 302 302 301 298 297 297 297 298 298 297 295 295 295 295 296 296 299 304 304 303 304 306 305 303 303 302 302 302 300 297 296 295 294 294 295 295 296 299 301 301 300 300 300 299 296 294 294 294 294 294 294 294 294 294 294 294 295 295 295 295 297 299 299 299 300 300 299 299 299 299 299 298 298 296 295 294 293 293 293 293 293 293 293 293
304 301 300 298 296 296 297 298 299 299 297 295 295 295 294 295 295 297 302 305 305 305 305 301 299 300 299 299 301 300 297 296 295 295 295 296 295 296 300 301 300 300 302 302 300 296 294 294 294 294 295 295 294 294 294 294 294 295 295 295 296 298 299 299 299 300 299 299 299 299 299 299 299 298 296 295 294 293 293 293 292 292 293 293 293
303 300 299 296 296 297 297 298 301 302 300 295 294 295 294 295 295 295 300 304 304 303 301 297 297 300 299 295 296 298 296 295 295 295 295 296 295 296 298 298 297 300 302 301 298 295 295 295 295 295 295 295 295 295 295 295 295 295 295 295 297 298 298 299 300 299 299 299 299 299 299 299 299 297 296 295 294 293 293 292 292 292 293 293 294
302 300 298 296 297 298 298 300 304 305 301 295 294 295 294 294 295 294 297 301 300 298 298 297 298 301 298 294 296 298 297 296 295 295 296 296 295 296 296 296 297 300 301 298 295 295 295 295 295 296 297 297 297 296 296 295 295 295 295 296 297 298 299 299 299 299 300 299 299 299 299 299 298 297 297 295 294 294 293 292 292 293 293 293 294
300 298 298 298 300 299 298 301 304 305 300 295 294 295 294 294 295 294 295 298 298 299 300 299 300 302 297 293 295 296 296 296 296 295 296 296 296 296 295 296 299 300 298 296 295 296 296 296 297 298 299 299 299 298 297 297 296 296 296 297 297 298 299 299 299 299 299 299 299 298 298 298 298 297 297 296 295 294 293 293 292 293 293 293 294
299 298 300 303 303 299 299 302 303 302 298 295 294 295 294 294 294 293 295 298 300 302 302 300 300 302 298 293 294 295 295 296 295 295 296 296 296 296 295 297 298 297 295 295 296 296 297 298 299 300 300 299 299 299 298 297 296 296 296 297 298 298 298 298 298 299 299 299 299 298 298 298 298 297 297 296 295 294 294 293 292 292 292 293 294
Wind_Speed
5 5 5 6 7 6 7 6 5 5 5 3 2 2 2 1 1 2 1 1 1 2 2 2 3 3 3 3 3 3 3 4 3 4 5 7 9 8 7 7 7 8 8 8 8 8 8 9 9 10 10 11 11 11 11 11 11 11 11 12 12 12 12 12 13 15 16 15 13 12 12 13 14 14 14 14 14 15 15 14 14 13 13 12 12
6 6 7 7 7 6 6 6 5 4 5 4 2 1 2 2 1 1 1 1 0 1 2 2 3 3 3 4 4 4 3 3 2 3 4 5 10 10 9 7 7 7 7 8 8 8 9 9 9 10 10 11 11 12 13 13 14 14 14 14 14 14 14 14 14 15 16 16 15 13 13 13 13 14 14 15 15 16 16 15 14 14 14 13 12
8 7 7 7 6 6 6 6 5 5 5 3 3 3 2 1 1 1 1 0 0 1 2 2 2 3 3 3 4 4 3 3 2 2 3 3 10 14 12 9 8 7 6 7 7 8 9 10 10 10 11 12 13 14 16 17 17 17 18 18 17 17 17 17 17 16 16 16 17 16 15 15 15 15 15 15 15 16 16 15 15 15 16 15 13
9 8 7 7 7 6 6 6 6 5 5 4 3 3 2 1 0 0 0 0 1 1 2 1 2 3 3 4 4 4 3 3 3 3 3 3 5 14 15 13 10 7 6 6 7 8 8 10 11 10 11 12 13 15 17 19 19 19 20 20 19 19 19 19 19 19 18 17 18 18 18 17 17 17 16 16 15 16 17 16 15 15 17 17 16
10 9 7 7 7 6 6 7 6 6 5 4 3 3 2 0 0 1 2 2 2 1 1 2 3 2 3 4 4 3 3 3 2 3 3 4 3 4 10 12 11 9 7 5 6 8 9 10 11 11 12 12 13 15 17 19 19 19 19 20 20 20 20 20 20 20 21 20 19 19 19 19 20 19 18 16 15 16 17 17 17 16 17 17 17
8 9 8 6 5 4 4 6 6 6 5 4 3 2 1 1 0 1 1 2 2 2 3 3 3 3 3 3 2 1 3 3 3 1 1 2 5 4 1 2 4 7 8 8 8 9 10 11 11 12 13 13 14 15 16 17 19 18 18 19 19 19 20 21 21 20 21 22 22 22 20 21 21 21 20 18 15 16 17 18 17 17 17 17 18
8 9 7 5 3 4 3 5 5 5 4 4 3 2 2 2 1 2 1 1 1 2 3 2 2 2 3 2 1 2 1 2 4 4 3 1 3 5 5 5 4 3 6 10 12 11 11 11 12 12 12 13 13 14 15 16 17 18 18 18 19 19 20 21 22 22 23 23 24 25 23 22 22 23 22 21 18 17 18 19 19 18 18 19 19
7 6 7 5 4 5 3 4 4 4 4 4 2 1 1 1 2 4 2 1 2 2 1 1 1 1 1 1 1 3 2 1 3 3 2 1 2 5 6 6 7 6 6 9 12 12 11 10 10 10 10 11 11 12 14 15 16 17 18 18 18 19 19 20 21 23 24 24 25 25 26 25 24 24 24 23 22 20 20 22 22 21 21 21 21
4 3 4 5 4 4 3 3 3 3 3 2 1 2 2 2 2 4 4 2 1 1 1 3 3 0 2 2 2 3 3 2 2 3 3 3 3 5 6 6 6 7 7 7 9 10 10 9 9 9 9 10 11 11 12 13 14 15 16 17 17 18 19 19 20 21 22 24 24 24 25 25 25 25 24 25 25 24 23 23 23 23 22 22 23
3 2 2 5 3 3 2 2 2 1 1 0 1 2 2 3 3 3 5 4 4 4 2 4 2 2 2 2 3 3 4 3 3 2 3 4 4 5 5 6 6 6 7 7 7 7 8 9 8 8 9 9 9 10 11 11 12 13 14 15 16 17 18 19 20 21 22 23 24 25 24 24 25 25 24 25 25 26 26 26 24 23 23 23 23
3 2 2 2 2 2 3 3 1 1 1 2 0 2 2 2 3 4 4 5 7 7 6 4 3 5 3 3 4 6 5 4 3 2 2 3 3 4 4 5 5 5 5 5 6 6 6 7 6 7 9 10 10 10 11 11 12 13 13 14 15 16 17 19 20 21 22 23 24 26 26 26 25 24 24 24 25 26 27 28 26 25 24 23 23
4 3 4 4 3 4 5 4 2 2 2 1 3 5 5 3 3 4 2 3 5 6 7 8 6 5 3 2 4 6 5 4 2 2 2 3 2 2 3 4 4 4 4 4 5 6 7 7 6 7 8 10 12 13 13 13 14 14 15 15 16 17 17 18 19 20 20 22 23 25 27 28 28 27 25 24 25 26 27 28 28 27 26 25 24
5 6 6 6 6 6 5 4 3 4 5 5 6 6 6 4 3 3 3 4 5 9 7 10 5 5 2 1 3 4 4 3 3 2 2 1 1 2 2 2 3 4 5 6 7 8 8 9 9 9 9 10 13 15 16 16 16 17 17 18 18 18 19 19 19 20 20 20 21 23 24 26 28 30 29 26 25 26 28 29 29 28 27 26 26
8 8 8 8 7 5 3 4 3 3 4 4 5 4 4 3 2 3 5 6 8 12 8 7 3 5 3 2 2 2 3 3 3 2 1 1 2 3 2 3 4 4 5 6 7 7 8 10 11 11 12 12 13 14 16 17 17 17 18 18 19 19 20 20 21 21 21 22 22 22 23 24 25 27 29 30 28 27 28 29 29 30 29 27 26
8 7 8 7 5 4 4 4 3 3 2 1 2 2 2 4 5 5 6 5 8 11 13 11 6 5 5 5 6 4 2 2 1 1 1 2 3 3 3 3 3 4 6 5 6 7 8 11 12 12 14 14 14 15 16 17 19 19 19 19 20 20 20 20 21 21 22 22 23 23 24 24 24 24 26 28 30 30 31 30 29 29 30 29 26
7 6 6 5 3 4 3 3 3 3 2 2 2 2 3 5 7 9 7 4 6 9 12 15 10 7 8 8 9 8 6 5 3 1 1 2 3 3 3 4 3 6 6 4 5 7 9 12 13 14 15 16 16 17 16 18 20 21 21 22 21 21 22 22 22 22 23 23 24 25 26 26 27 26 26 26 27 30 32 34 32 29 29 30 29
6 4 2 2 3 3 2 3 3 3 3 3 4 6 7 8 9 10 10 7 7 7 9 14 13 12 10 6 6 6 4 7 5 3 1 2 4 4 5 4 5 6 5 4 5 6 7 10 14 16 17 17 18 18 18 20 22 23 23 23 24 24 25 25 25 25 25 26 26 27 28 28 29 29 29 28 27 27 29 32 35 35 31 29 30
6 5 1 2 2 2 2 3 3 3 4 6 7 9 9 10 10 10 10 9 8 6 8 11 13 15 13 9 7 2 5 7 5 4 4 1 4 5 6 6 7 5 2 4 6 8 7 7 11 15 17 18 19 20 19 20 23 24 24 24 25 27 27 27 27 27 27 27 27 28 28 29 29 30 30 30 30 29 28 28 31 35 36 32 29
7 5 2 2 2 2 2 3 3 4 6 8 10 11 10 10 11 11 10 10 8 5 6 8 9 12 13 11 9 5 7 8 5 4 5 4 2 4 4 6 8 6 2 3 6 10 10 8 8 10 16 18 19 20 18 20 23 24 25 26 27 27 27 27 28 28 28 28 29 29 29 29 29 29 30 30 31 31 31 29 28 29 34 36 32
4 2 1 3 2 2 3 4 5 7 9 11 11 11 11 10 10 10 10 11 11 9 8 8 7 8 8 8 7 6 8 10 8 5 3 6 7 4 5 7 8 8 6 4 5 9 11 13 10 6 13 15 15 16 16 19 24 24 26 28 28 27 26 27 26 27 27 28 29 29 30 30 30 30 30 30 30 31 32 31 30 28 29 33 35
3 2 2 3 3 3 4 6 8 10 11 12 12 11 10 10 10 9 9 10 11 12 12 11 10 9 8 6 6 6 5 7 10 6 2 3 4 4 5 8 6 6 8 7 7 10 11 14 12 7 12 12 11 14 15 20 24 25 26 28 29 28 28 27 26 26 27 27 28 28 29 29 29 30 30 30 30 31 31 31 31 31 29 29 32
3 2 2 2 3 5 6 8 11 12 13 12 11 11 10 10 10 10 11 10 10 11 12 12 12 12 11 8 5 4 4 3 5 3 1 1 1 2 4 5 4 6 11 11 12 13 10 11 10 8 11 11 11 14 17 22 25 25 27 28 29 30 30 30 29 28 29 29 30 29 28 27 27 27 27 28 29 30 30 31 30 29 27 28 29
4 3 3 2 4 7 8 10 13 13 13 12 11 11 11 11 11 11 11 11 11 10 11 11 10 10 11 10 8 8 7 5 5 5 3 2 1 1 1 2 2 4 9 12 13 11 7 8 7 8 11 11 12 16 20 25 25 24 27 29 30 31 31 31 31 32 33 34 34 33 31 29 27 26 25 25 27 29 30 31 31 28 27 28 30
4 4 4 3 4 8 10 12 14 14 14 13 12 13 13 12 13 12 12 12 12 11 11 11 10 10 10 10 10 9 9 8 7 7 5 3 2 1 2 2 2 1 3 7 10 6 4 8 7 7 10 11 14 17 23 26 24 25 28 30 30 31 31 32 32 34 35 37 37 36 35 33 31 28 26 25 25 27 29 31 32 32 31 32 32
5 4 4 4 4 8 12 14 15 15 13 13 13 14 13 13 13 13 12 12 11 10 10 11 11 11 10 10 9 8 8 8 7 7 7 6 4 2 3 2 2 3 2 2 3 3 5 8 7 8 10 12 15 18 23 25 25 27 30 31 32 33 33 33 34 35 36 37 38 37 36 35 33 31 29 28 27 26 27 30 32 34 34 34 33
5 4 5 6 6 9 14 15 15 14 13 14 14 14 14 13 13 13 12 12 11 10 10 10 10 10 10 9 8 8 7 7 7 7 7 7 7 6 4 3 1 3 3 2 2 3 6 9 8 8 11 14 18 21 24 26 27 29 32 33 35 35 34 35 36 37 38 38 39 38 37 36 34 32 32 32 31 30 29 29 30 32 33 33 32
5 6 8 8 7 11 15 14 14 14 14 14 15 15 14 14 13 13 12 11 11 11 10 10 9 9 9 8 7 8 7 7 7 7 8 8 8 9 8 4 2 3 3 3 4 4 7 11 9 8 12 17 20 23 25 27 28 30 33 35 37 36 36 37 39 39 39 39 39 39 38 37 36 36 37 37 37 36 35 33 30 31 33 33 33
6 8 9 8 9 13 15 14 14 14 15 16 16 15 14 14 13 13 12 12 11 11 11 10 9 8 8 8 8 8 7 8 8 7 8 9 10 10 10 8 5 5 4 3 5 5 8 11 10 10 13 17 21 24 26 29 30 32 35 36 38 38 38 39 40 39 39 40 40 39 39 38 39 40 41 42 43 42 41 39 36 35 36 35 33
7 10 10 10 13 15 15 15 15 15 16 16 16 16 15 14 14 13 12 12 11 11 11 10 9 9 8 8 9 8 8 8 8 8 8 10 11 10 10 10 8 6 5 5 6 7 10 13 12 13 16 18 22 26 28 29 29 31 35 38 39 38 38 40 41 40 40 40 40 40 38 38 40 42 44 44 45 46 45 43 40 38 37 34 31
6 10 10 12 16 16 16 16 16 16 17 17 16 16 15 14 14 13 12 12 11 11 10 9 9 8 8 9 9 8 8 8 8 8 9 10 10 10 10 10 11 9 7 7 7 8 12 15 14 16 19 21 23 26 27 26 27 30 35 37 36 35 38 40 40 39 39 39 41 40 38 38 40 43 45 46 47 47 45 43 41 39 37 34 32
6 10 12 15 18 17 16 16 16 17 17 17 17 16 15 14 14 13 12 11 11 10 9 9 9 9 9 9 9 9 8 8 9 9 9 10 10 8 8 9 11 12 10 8 9 10 12 15 17 18 19 22 24 24 24 24 25 29 33 35 34 34 37 38 37 38 37 38 40 40 38 38 41 44 46 46 46 46 44 43 41 40 38 35 34
9 14 16 17 18 17 17 17 17 18 17 17 17 16 15 15 14 13 12 11 10 9 9 9 10 9 8 8 8 8 8 6 7 8 8 10 10 8 7 7 8 11 11 9 11 13 13 15 18 19 19 21 23 22 22 23 25 28 31 33 34 34 35 36 36 36 35 37 40 39 37 39 43 46 46 46 45 45 43 42 40 40 39 37 35
12 17 18 18 18 17 17 17 17 17 17 17 17 16 15 15 14 13 12 11 10 9 9 9 10 10 9 8 7 8 9 6 5 5 5 8 9 7 7 6 6 8 10 9 11 14 16 16 17 18 18 20 22 21 22 24 25 26 29 32 33 33 34 35 36 36 35 37 38 37 38 41 44 45 45 45 45 44 42 41 41 40 39 38 36
14 18 18 18 17 17 17 17 17 17 17 17 17 16 15 14 13 13 12 11 9 9 9 9 9 9 9 9 8 8 8 8 6 4 4 7 6 5 5 5 6 7 9 10 10 14 17 18 18 18 18 19 21 21 21 23 25 26 29 32 32 33 34 35 36 35 35 37 37 36 39 42 44 45 45 45 45 44 43 43 42 40 38 37 36
17 18 18 18 17 17 17 17 18 17 16 17 16 15 14 13 12 12 12 11 10 10 9 8 8 9 9 9 8 7 7 6 6 4 5 7 5 4 5 6 7 8 10 10 11 13 17 19 19 18 19 19 20 21 22 23 24 27 30 32 32 34 36 37 36 34 34 36 36 35 38 41 42 43 43 44 45 45 44 43 41 38 35 34 33
19 18 18 18 17 17 17 17 18 17 16 16 15 15 14 13 12 11 11 10 10 9 8 8 8 8 8 8 7 6 5 4 4 3 3 5 5 4 6 6 7 9 11 10 11 13 16 19 19 19 19 20 20 21 22 23 25 28 29 30 33 37 38 37 35 33 34 35 34 35 38 39 40 42 43 44 44 44 41 39 38 34 32 31 32
20 19 18 17 17 18 17 17 17 16 15 15 15 15 14 13 12 11 10 10 10 10 9 8 8 8 7 6 5 4 3 3 2 1 2 4 5 4 6 7 7 10 12 11 12 13 15 18 19 20 19 19 20 21 21 24 28 29 28 29 36 41 40 37 33 31 33 33 33 36 39 38 39 42 43 42 41 39 37 35 35 34 32 31 31
20 19 19 17 16 17 16 16 16 15 15 14 14 14 14 14 13 12 12 11 10 10 9 8 8 8 7 6 5 5 5 4 2 1 2 4 5 5 7 8 9 11 12 12 13 14 15 17 18 19 19 20 21 21 21 25 28 29 29 33 38 40 38 37 35 32 31 31 33 36 39 40 42 42 41 39 38 36 35 35 36 34 32 30 29
20 19 18 17 15 15 15 15 14 14 13 13 13 13 14 14 14 13 13 11 10 10 9 7 7 7 7 6 5 5 5 4 3 1 2 4 5 6 7 9 10 12 13 13 14 14 15 16 17 18 19 20 20 21 24 26 26 27 31 36 40 39 35 34 35 34 31 31 33 37 40 41 40 39 37 36 36 35 34 35 35 33 30 29 28
20 19 18 17 16 14 13 13 13 13 13 13 13 13 13 14 14 13 13 12 11 10 10 8 8 7 7 6 5 5 4 3 1 1 2 4 6 6 8 9 11 12 13 14 13 14 16 16 17 18 20 21 20 22 25 26 25 29 33 36 38 39 36 34 34 33 31 31 35 40 43 40 36 36 36 35 34 34 34 34 33 31 29 29 28
23 22 20 20 18 14 12 12 11 12 13 13 14 15 13 14 14 13 13 12 11 10 9 9 8 8 6 5 5 4 2 1 0 2 3 5 6 8 9 10 12 13 14 14 14 15 18 19 18 19 20 21 22 24 26 25 26 31 36 35 34 36 37 35 34 31 30 32 38 42 42 39 37 36 36 36 36 35 34 32 31 29 29 30 32
27 25 23 22 20 17 15 16 15 14 14 14 16 17 16 14 14 13 12 12 10 9 9 8 8 7 6 6 4 3 3 2 1 2 4 5 7 8 10 10 11 13 14 15 17 18 20 21 21 21 21 21 23 25 25 25 27 32 35 35 34 36 36 36 35 32 29 33 41 44 41 38 39 40 39 38 37 36 35 32 31 32 32 33 35
27 26 23 22 22 21 21 21 21 20 19 18 19 19 19 17 14 12 12 11 10 9 8 8 7 6 7 6 5 3 2 1 1 2 3 5 6 7 9 10 12 14 15 16 18 20 22 23 24 23 21 22 25 25 24 26 30 33 34 34 34 35 36 37 38 35 33 35 42 47 46 41 40 44 45 41 37 37 36 35 34 35 35 35 36
25 25 24 22 22 23 23 23 23 21 21 21 20 19 18 17 16 14 11 10 10 9 8 7 6 6 7 7 6 3 1 2 3 4 4 5 6 7 10 13 15 16 17 18 19 21 22 23 24 23 21 23 26 26 25 28 32 33 34 35 34 34 35 35 37 37 37 38 40 45 49 45 42 47 49 43 38 38 37 35 35 35 35 35 35
26 26 25 23 23 25 25 24 23 21 22 21 19 18 18 17 17 16 11 9 10 9 7 7 8 8 8 6 4 3 3 3 3 3 5 6 7 8 11 14 16 17 19 20 20 22 24 23 22 23 23 23 25 27 28 30 33 34 35 36 36 35 35 35 37 39 39 38 40 45 48 47 49 55 55 47 39 36 34 34 36 36 34 32 31
26 26 25 23 24 24 24 23 21 20 21 20 18 19 18 17 18 17 12 8 9 8 8 11 12 12 9 6 4 5 5 4 3 3 4 6 7 8 10 11 13 15 17 18 20 24 25 24 23 23 23 23 25 28 29 30 33 34 36 39 39 36 35 36 37 37 35 35 39 44 47 49 54 60 60 52 43 37 34 34 36 37 35 32 31
25 25 24 23 24 24 23 22 20 19 20 21 19 19 18 18 19 18 14 9 8 10 12 14 13 11 10 10 9 7 6 5 4 4 5 6 8 8 8 9 11 12 12 14 19 22 23 23 23 23 23 23 25 27 29 31 32 34 36 38 36 33 34 35 35 34 32 33 37 41 46 50 54 60 62 57 48 42 41 40 39 37 34 31 28
25 25 24 24 24 23 23 21 19 19 22 21 20 19 19 19 19 20 16 11 11 13 14 12 10 9 10 10 8 6 6 6 5 5 6 7 8 8 8 10 12 11 10 14 19 21 22 22 22 22 22 23 24 27 29 31 33 35 37 36 32 31 33 34 34 34 34 35 37 41 45 51 55 60 62 57 49 47 48 49 45 37 32 28 24
26 26 25 24 23 23 23 21 19 19 22 22 20 20 20 20 20 20 16 12 12 12 11 10 9 9 11 10 8 7 7 6 5 5 6 7 7 8 8 10 12 11 12 16 20 21 21 21 21 22 23 25 27 29 30 31 33 34 34 32 31 31 33 33 34 36 36 36 38 42 47 51 54 59 60 55 49 47 49 55 50 37 30 28 24
26 25 24 23 22 23 23 22 20 19 21 21 20 20 20 20 19 18 15 10 9 9 9 10 9 10 11 10 8 8 8 6 6 6 6 7 7 8 9 10 11 12 14 18 20 21 21 21 22 24 25 26 26 27 27 29 31 32 30 30 31 31 31 33 35 37 36 35 38 44 49 50 53 58 60 56 52 48 49 56 53 40 33 31 27
25 24 21 19 21 24 23 21 21 21 21 21 21 21 20 19 18 17 14 9 8 9 9 10 10 10 11 9 8 8 8 6 6 7 7 7 7 9 10 11 11 14 16 18 19 21 23 24 24 23 23 23 23 23 24 26 29 30 29 30 30 30 31 33 34 35 36 36 40 46 48 48 51 56 58 56 54 52 53 56 53 43 38 35 29
Wind_Direction
212 199 190 193 197 180 165 163 167 157 147 137 125 137 109 110 104 98 77 49 10 325 335 323 327 336 354 346 343 15 19 38 39 326 324 312 322 344 343 345 352 348 349 344 342 342 343 348 347 348 345 344 347 343 342 340 340 342 336 333 329 326 325 323 322 321 318 314 313 316 314 311 309 308 306 308 316 320 317 313 314 315 309 300 291
210 203 203 197 195 181 162 156 156 146 130 116 107 92 67 52 44 82 74 34 347 327 339 334 341 342 1 2 359 22 42 52 37 354 7 337 330 347 351 344 348 347 348 348 344 344 344 343 340 340 336 335 336 330 326 324 325 325 325 327 324 323 323 322 322 322 321 317 315 312 307 305 306 305 301 298 304 313 317 313 309 311 312 309 299
206 200 208 201 189 181 168 151 142 128 115 114 112 101 85 65 53 127 152 79 336 336 350 351 359 2 4 10 21 31 41 58 62 43 57 24 331 335 349 350 342 343 346 347 343 340 338 336 334 332 329 326 323 320 317 317 318 319 322 326 323 321 321 321 320 321 322 321 318 316 310 305 303 302 299 296 296 298 305 309 305 304 305 307 308
213 205 209 206 192 180 171 149 136 133 127 126 130 123 119 155 222 272 263 345 334 348 1 7 29 32 23 25 42 46 45 62 82 90 92 90 341 337 347 349 341 334 331 338 335 329 328 326 323 321 318 316 315 314 314 313 314 317 322 325 324 322 321 320 318 318 319 320 320 319 316 312 308 305 300 296 296 293 293 297 299 301 298 299 305
223 220 219 213 196 177 163 150 144 147 141 129 123 111 103 148 8 342 337 11 355 342 14 39 47 40 44 43 50 65 65 69 108 132 138 149 153 357 354 353 354 344 320 318 325 320 318 316 313 310 308 307 308 308 309 309 310 315 319 320 321 321 319 318 317 316 316 318 318 316 316 317 316 314 308 299 293 290 288 285 288 294 294 294 298
222 225 229 218 194 184 160 144 144 142 137 131 121 109 139 185 119 315 325 25 357 359 20 37 50 26 33 39 33 109 110 92 73 83 195 211 194 190 261 313 358 353 331 323 324 319 315 312 309 307 306 306 306 305 305 306 308 312 314 314 315 316 316 315 316 315 313 315 314 312 313 315 316 317 315 309 295 287 287 284 284 286 287 289 291
224 219 212 195 180 215 183 132 139 139 138 147 137 152 205 215 219 254 311 35 2 32 24 16 76 49 36 32 32 87 138 141 100 77 70 33 250 235 248 254 254 290 316 318 321 321 318 314 312 311 309 309 309 309 309 309 311 313 314 313 312 311 311 311 312 311 311 312 310 309 310 310 311 312 312 312 302 290 287 286 284 281 280 282 285
229 208 185 178 185 213 192 148 157 155 162 164 142 197 245 273 244 237 241 70 15 23 13 274 195 80 78 84 99 106 107 163 154 160 144 114 281 266 272 285 289 289 290 303 314 322 325 322 320 318 319 319 318 318 317 316 316 317 318 317 316 314 311 309 308 308 308 309 308 307 307 306 306 306 306 307 304 298 291 289 287 285 283 282 281
225 210 165 153 163 181 169 168 168 165 197 188 172 218 227 263 233 222 229 185 75 348 289 256 254 121 118 123 128 157 176 177 171 208 228 235 274 287 288 297 306 309 308 309 315 323 330 331 331 331 333 331 330 329 325 324 323 322 322 321 320 318 317 315 312 311 310 309 309 308 307 306 304 304 303 301 301 300 296 292 291 289 288 286 283
219 229 136 127 149 163 157 193 175 181 215 124 317 263 235 245 239 239 241 222 204 185 194 256 254 124 123 114 132 180 207 207 200 218 252 265 284 300 308 316 321 324 325 327 328 331 336 343 348 349 350 348 342 340 337 334 332 330 327 324 322 321 320 319 318 316 315 313 313 312 310 309 307 305 303 301 298 297 296 293 291 290 289 288 286
207 198 163 147 171 193 216 222 182 232 188 86 349 277 276 260 258 266 254 242 233 189 166 194 159 143 132 105 166 205 217 215 223 245 278 299 314 327 338 339 336 340 340 340 345 351 355 1 7 359 354 356 352 351 349 346 343 339 336 332 328 326 324 322 321 319 317 315 315 314 314 312 310 308 306 303 300 297 295 292 291 291 290 289 287
193 188 199 192 194 220 238 250 287 270 248 192 203 225 257 261 249 265 238 235 234 152 170 210 180 154 130 113 193 216 230 233 241 286 322 322 338 16 9 349 347 353 355 360 8 14 17 16 19 13 2 358 356 355 355 352 351 348 344 342 338 335 332 329 325 322 318 316 314 314 313 313 312 311 309 307 304 301 297 294 292 289 288 288 288
188 194 206 208 224 240 250 268 281 259 249 248 236 237 262 265 236 233 182 205 170 134 201 243 194 155 136 111 210 221 239 249 270 289 325 344 9 28 15 7 9 11 13 20 24 20 17 16 15 14 13 7 0 358 356 355 354 353 349 347 346 343 339 336 333 329 325 321 318 315 313 312 312 311 311 311 308 303 299 297 294 291 286 285 286
201 208 218 224 235 248 274 283 274 265 262 259 253 252 260 239 193 190 185 198 165 147 198 240 179 186 183 135 202 231 241 246 277 297 3 49 42 24 27 38 21 25 32 25 25 22 13 14 13 10 11 11 6 2 360 358 356 354 353 351 349 346 343 340 338 335 331 328 325 322 318 316 313 310 310 310 310 307 302 298 295 294 291 287 284
213 218 225 231 244 261 279 278 273 275 271 259 255 248 223 189 173 180 180 189 179 171 188 192 186 214 210 205 208 206 225 225 241 73 74 29 36 35 53 61 24 37 49 28 13 13 11 14 13 10 11 11 8 7 4 360 358 356 355 354 351 347 345 343 340 337 334 331 329 327 325 321 318 314 311 309 309 308 306 302 298 295 293 292 287
218 220 227 239 256 262 269 276 290 291 263 243 228 191 187 179 174 173 156 159 208 203 195 194 193 195 209 230 218 205 202 185 164 94 51 18 36 34 48 64 43 42 45 30 5 0 2 6 10 13 12 12 10 9 8 2 360 359 356 353 351 349 348 346 342 338 336 334 332 330 328 326 323 320 317 313 310 307 306 306 305 300 295 293 292
228 236 240 245 246 254 282 293 294 289 243 218 190 176 176 173 176 177 165 169 208 213 201 202 203 197 204 231 223 213 187 175 171 128 108 9 23 30 39 43 52 58 39 22 14 5 360 353 4 13 11 10 11 10 9 2 358 359 357 353 351 351 349 345 342 340 339 337 335 332 330 328 325 323 321 318 314 309 305 305 306 306 302 295 292
242 256 263 235 247 253 270 288 284 254 215 195 182 178 177 176 179 183 185 185 191 201 198 202 210 211 214 227 239 232 129 164 187 158 176 273 347 17 41 39 50 71 28 11 13 17 23 357 1 9 5 7 9 10 8 359 355 355 354 354 353 350 346 343 342 341 340 338 335 333 330 328 325 323 321 319 316 312 308 304 303 304 305 303 296
245 253 243 216 235 254 254 270 250 220 202 191 185 182 181 183 186 187 191 185 168 171 184 188 205 214 219 228 240 223 163 178 189 169 187 197 255 328 13 27 45 68 34 3 358 10 26 21 15 358 355 4 5 4 1 352 352 351 351 355 353 347 343 341 341 339 338 337 335 332 330 327 324 322 319 316 314 311 309 306 302 299 300 302 301
238 226 193 187 203 248 252 244 222 203 195 192 189 187 184 186 191 189 188 180 165 164 171 170 176 191 204 211 207 194 189 198 193 194 210 183 201 261 305 334 12 41 39 37 354 8 21 20 32 4 349 2 358 353 350 345 349 349 349 351 349 345 342 341 339 338 337 336 334 332 329 326 323 321 318 314 311 308 307 306 302 299 296 297 300
217 162 170 169 191 238 241 227 209 196 195 194 188 188 186 184 187 180 174 174 169 170 170 166 164 164 165 169 171 163 171 196 196 207 247 182 193 209 243 296 327 352 4 23 16 20 22 12 23 11 350 358 348 344 343 343 349 350 348 348 345 344 343 342 340 339 338 336 334 332 328 325 321 318 315 311 309 305 303 302 301 300 296 291 292
197 164 151 149 188 221 230 219 204 195 193 190 185 183 181 178 176 169 163 162 163 166 165 164 166 165 158 148 149 148 133 147 164 160 123 128 113 158 214 269 260 274 317 351 16 23 18 3 5 345 342 349 337 337 342 348 352 350 349 348 346 346 344 343 343 341 340 338 335 331 326 322 318 314 310 306 304 301 299 298 298 300 299 293 287
183 179 164 160 198 212 218 211 200 194 188 183 181 177 172 168 162 160 159 155 153 156 155 155 158 161 161 156 159 161 149 136 126 114 91 80 58 66 254 289 255 257 299 337 8 22 6 351 351 331 337 341 331 335 346 353 353 347 349 352 349 348 346 345 345 344 342 339 336 332 327 322 316 311 306 301 297 295 294 293 293 295 295 292 289
183 184 183 189 209 208 206 201 193 190 185 180 177 171 166 163 159 156 155 152 151 151 149 149 148 150 150 147 149 150 143 139 134 128 116 91 68 17 15 342 335 320 290 327 358 23 3 347 344 332 336 336 330 338 349 353 349 348 353 355 352 350 349 348 348 345 343 340 337 334 331 327 321 316 310 305 299 293 291 290 288 288 288 288 288
184 179 187 190 190 193 195 194 189 185 182 178 172 167 162 159 159 156 153 152 148 149 151 150 147 144 139 133 133 133 131 130 127 125 120 101 92 73 19 6 1 354 325 319 2 12 356 350 342 334 336 334 334 342 349 350 350 354 356 354 354 353 351 350 348 346 343 340 337 334 332 330 326 324 321 316 311 303 296 291 287 284 284 285 286
185 182 182 170 162 184 191 189 184 181 178 174 169 164 160 158 158 156 153 151 149 150 151 147 142 136 131 130 128 128 126 124 120 114 110 100 93 88 46 355 346 2 354 15 34 4 351 350 343 335 334 336 341 346 350 352 356 358 356 354 355 353 350 350 348 345 343 339 336 334 331 329 327 326 325 323 320 314 307 300 293 288 286 285 285
177 178 172 161 162 181 187 184 180 178 173 170 167 163 161 159 158 157 154 153 153 152 146 139 136 131 130 131 129 128 123 116 114 108 104 96 86 86 69 31 1 11 6 358 9 8 352 348 346 339 335 338 346 350 352 356 358 357 356 354 353 351 349 348 346 343 341 338 334 332 330 329 328 326 325 324 322 320 316 311 304 299 295 289 285
175 175 169 162 168 178 182 181 177 174 170 168 166 161 159 158 157 158 156 156 154 148 142 136 134 133 134 133 128 125 122 116 111 104 100 93 85 83 71 60 49 11 359 352 357 356 348 348 346 340 335 338 347 353 356 358 357 355 355 353 351 349 346 344 343 341 339 337 333 330 329 327 326 325 323 321 320 319 317 313 308 304 301 294 288
175 169 167 164 171 177 180 178 175 172 170 168 165 160 158 158 159 160 158 155 152 145 141 139 138 139 138 134 127 122 117 111 106 99 97 91 83 78 70 64 59 31 0 349 349 340 341 348 343 337 342 344 347 354 359 357 352 350 352 352 349 344 340 339 340 339 336 333 330 328 326 324 322 321 319 317 315 314 312 309 307 305 302 297 292
190 172 169 169 176 180 179 177 174 172 170 168 164 160 160 162 161 160 156 149 146 144 142 143 143 141 138 131 124 120 116 108 101 91 86 84 75 66 63 56 49 45 26 351 337 332 338 345 343 339 344 348 347 352 354 348 342 343 347 348 342 334 334 337 337 335 332 329 326 324 321 319 319 318 316 314 312 310 307 305 305 305 303 299 294
201 183 180 177 181 181 177 176 175 173 172 168 164 161 162 165 162 157 152 145 144 144 145 146 143 138 134 129 120 113 104 94 92 85 77 79 73 54 48 43 31 33 33 358 328 331 334 333 339 342 339 342 346 345 339 334 333 338 342 341 334 330 333 334 331 330 328 323 321 321 320 318 317 315 314 312 310 309 307 306 305 304 303 299 294
206 192 187 183 184 183 179 177 176 174 172 169 166 164 165 165 160 154 148 143 145 146 147 148 142 136 131 127 124 114 102 85 75 72 68 70 69 53 39 32 13 11 17 354 321 328 337 332 333 336 332 333 339 334 327 327 329 333 336 334 331 329 328 327 327 327 324 321 320 320 319 317 316 315 313 312 311 309 308 306 305 304 302 301 297
208 191 185 186 186 183 180 177 176 175 172 171 168 165 166 164 158 153 148 144 148 150 148 148 144 138 130 123 123 121 117 111 81 63 63 63 54 41 32 20 357 352 354 345 322 323 341 344 333 329 327 326 328 328 325 324 325 327 330 330 329 328 326 324 324 324 321 320 319 319 321 320 318 315 313 312 311 310 309 308 306 305 303 303 301
198 186 185 187 184 182 178 175 175 174 173 174 171 166 165 163 159 154 149 148 153 153 149 147 145 140 133 128 126 122 117 111 98 82 84 77 51 24 26 8 345 343 340 339 327 317 327 338 332 325 324 321 322 326 325 322 323 325 327 329 329 327 326 324 321 321 321 320 319 322 323 320 316 313 311 311 310 310 310 308 307 305 304 303 303
188 181 186 185 179 178 176 173 174 173 175 175 170 166 164 162 162 157 153 155 155 151 145 143 144 139 134 133 128 118 105 94 85 69 77 83 59 11 14 4 338 337 340 336 327 314 314 323 327 324 321 321 322 323 324 323 323 324 326 329 329 329 330 327 321 319 320 322 325 326 322 316 313 312 312 311 310 309 308 306 305 303 303 304 305
183 181 185 181 177 176 174 175 176 174 176 175 169 166 163 161 162 158 157 157 150 145 145 144 144 140 134 131 125 115 101 89 76 52 65 81 65 12 0 1 337 334 346 344 325 313 310 314 320 322 321 322 323 323 325 325 324 324 326 327 328 332 334 330 323 320 321 324 326 324 321 318 315 314 312 311 310 309 308 308 308 307 305 305 306
180 184 183 175 176 178 174 175 177 175 177 176 171 169 165 162 163 160 158 158 154 156 159 157 153 146 141 136 130 125 115 105 98 79 76 73 64 30 3 4 351 344 356 354 330 316 313 312 316 320 322 324 324 325 328 327 326 327 326 326 332 338 338 331 325 322 322 325 326 325 323 320 317 315 313 312 312 312 314 316 316 314 310 307 305
181 185 179 173 176 178 175 175 177 177 177 174 173 172 167 165 165 164 165 165 166 165 160 157 156 151 151 153 148 152 153 147 148 122 63 53 52 30 7 6 3 358 0 355 338 325 319 317 318 321 324 326 327 327 329 328 328 328 327 327 334 340 337 330 326 324 323 325 326 325 324 322 319 317 316 315 316 318 319 317 315 313 311 310 308
183 184 176 172 173 172 172 174 175 175 173 171 174 174 171 170 170 171 173 171 171 167 156 155 160 157 157 159 164 174 168 158 148 105 36 26 33 22 6 5 3 1 0 353 343 334 326 322 322 324 326 328 330 328 328 330 329 329 330 330 334 336 332 326 325 325 325 326 326 326 326 325 322 321 321 320 319 319 316 313 312 312 312 313 311
185 180 173 173 172 170 173 173 173 175 173 171 173 174 174 176 176 177 176 172 173 172 163 164 169 163 159 165 184 189 171 155 141 62 23 12 18 12 4 3 1 360 1 355 344 335 332 330 328 329 329 331 331 328 329 332 331 330 334 332 329 329 328 324 324 326 325 327 329 328 329 329 326 326 327 324 320 318 314 312 311 311 312 311 306
185 178 176 180 173 166 170 169 171 179 176 175 178 174 176 182 181 178 176 174 176 175 169 174 174 163 170 190 191 185 181 172 107 21 8 4 7 6 2 1 359 359 0 359 350 342 343 342 336 334 334 332 331 329 330 333 330 330 336 334 326 325 325 323 324 327 327 330 331 330 331 333 329 326 326 325 323 320 316 313 311 309 306 301 296
193 186 185 185 174 171 180 180 183 188 185 189 191 180 176 181 181 181 180 176 177 177 174 180 180 171 189 215 202 179 203 211 67 17 6 6 5 2 359 356 356 357 356 356 353 349 349 347 343 341 336 329 329 330 330 329 329 332 337 335 327 326 326 324 324 327 329 330 328 326 329 334 333 329 327 325 323 322 318 314 310 305 300 296 294
201 198 198 198 193 194 196 195 198 197 193 200 202 191 182 179 176 180 184 178 177 183 181 183 193 190 195 219 234 220 220 260 342 353 3 10 4 359 355 349 349 352 351 349 350 351 349 346 346 344 334 326 329 332 328 328 333 338 339 334 328 326 326 325 324 324 328 331 328 324 325 331 335 335 332 327 322 320 317 312 309 306 302 299 296
204 205 208 209 208 205 199 199 201 198 198 204 205 197 192 186 179 177 180 183 180 183 188 187 197 210 207 218 238 249 284 303 318 333 343 353 353 350 351 349 346 345 343 342 345 349 349 345 345 344 335 329 332 334 332 333 338 342 339 333 329 326 324 323 320 319 326 331 328 324 324 329 336 336 334 331 325 320 316 313 310 307 304 300 296
204 208 211 210 207 203 199 200 200 199 204 208 202 197 197 195 187 174 169 192 191 181 193 197 195 209 215 222 243 265 284 291 310 330 332 337 342 345 349 348 342 335 334 337 339 342 345 344 342 341 338 335 335 337 340 342 343 341 335 332 332 328 322 320 317 318 324 330 328 325 324 329 336 338 337 336 331 325 321 317 315 312 311 311 308
206 208 212 209 204 202 200 199 198 202 210 208 200 198 196 193 192 178 165 189 200 186 199 210 206 207 209 205 218 251 271 284 300 312 321 330 336 345 347 336 326 325 327 329 331 334 339 340 337 336 338 339 340 344 347 347 344 339 334 334 335 329 320 317 317 318 324 329 328 327 325 328 335 339 340 341 338 335 331 325 322 319 317 315 311
207 207 208 204 201 200 200 200 198 204 212 207 200 200 196 190 193 186 172 176 198 203 213 216 211 209 211 203 201 219 244 259 280 301 318 326 329 342 345 325 321 328 323 315 320 327 331 334 333 332 334 339 344 347 350 350 345 340 337 336 333 325 318 318 319 320 324 328 329 328 327 329 334 338 342 342 341 341 341 338 332 325 318 311 304
206 207 205 202 202 201 201 200 197 202 213 209 199 199 198 191 191 191 183 183 199 211 219 219 208 208 218 212 202 216 241 254 271 294 310 318 325 337 340 327 328 336 323 312 320 330 332 332 330 329 334 342 347 350 353 352 346 340 336 334 329 323 321 321 322 323 326 331 331 329 328 330 334 338 342 343 342 342 346 348 344 334 327 321 313
206 207 204 203 203 201 200 197 194 204 214 209 199 200 200 193 192 194 192 194 203 210 218 217 208 214 222 213 203 215 233 253 271 289 305 313 324 334 334 334 337 337 324 319 327 335 334 331 333 338 344 346 346 346 347 347 344 339 334 329 326 326 325 324 324 325 327 331 332 331 332 332 334 338 342 344 344 343 347 351 351 344 337 332 325
205 203 201 201 201 201 201 197 196 208 214 207 201 203 201 195 195 195 191 193 202 206 217 215 205 218 230 221 213 223 233 251 272 285 299 308 326 337 336 340 340 331 325 330 336 337 338 343 349 349 345 340 337 336 335 337 340 338 332 326 326 328 327 325 325 324 326 330 334 334 333 332 334 339 343 345 345 346 349 352 352 350 345 339 329
201 198 195 194 197 200 199 197 201 210 213 208 204 205 201 197 196 191 181 186 209 208 213 217 207 218 236 231 221 235 246 259 273 282 295 311 331 339 340 344 336 329 334 340 340 342 351 358 353 342 336 334 332 330 329 332 336 338 335 332 330 329 326 325 325 325 326 330 335 335 332 332 334 340 346 347 344 345 351 354 354 352 348 342 333